Regional Weather Roundup
Issued by NWS

Home | Current Version | Previous Version | Text Only | Print | Product List | Glossary On
Versions: 1 2 3 4 5 6 7 8 9 10 11 12 13 14 15 16 17 18 19 20 21 22 23 24 25 26 27 28 29 30 31 32 33 34 35 36 37 38 39 40 41 42 43 44 45 46 47 48 49 50
000
ASUS43 KTOP 011108
RWRKS

WEATHER ROUNDUP FOR KANSAS
NATIONAL WEATHER SERVICE GOODLAND KS
500 AM CST SUN FEB 01 2015

NOTE:  "FAIR" INDICATES FEW OR NO CLOUDS BELOW 12,000 FEET WITH NO
SIGNIFICANT WEATHER AND/OR OBSTRUCTIONS TO VISIBILITY.

KSZ001>006-013>018-027>032-041>047-011200-
NORTHWEST KANSAS

CITY           SKY/WX    TMP DP  RH WIND       PRES   REMARKS
GOODLAND       CLOUDY    20  17  88 N30G36    30.01R WCI   1
HAYS           CLOUDY    25  12  58 NW28G35   29.94R WCI   8
HILL CITY      LGT SNOW  21  15  78 N30G44    29.99R WCI   3
RUSSELL        CLOUDY    25  22  88 NW32G39   29.90R WCI   8
$$

KSZ061>065-074>080-084>089-011200-
SOUTHWEST KANSAS

CITY           SKY/WX    TMP DP  RH WIND       PRES   REMARKS
DODGE CITY     CLOUDY    26  21  81 N26G39    29.93R WCI  10
ELKHART          N/A     34  23  64 N20         N/A  WCI  23
GARDEN CITY    CLOUDY    26  21  81 NW26G36   29.97R WCI  10
LIBERAL        CLOUDY    34  28  80 N28G40    29.96R WCI  20
PRATT          CLOUDY    30  28  93 N30G39    29.87R WCI  15
$$

KSZ066>073-081>083-090>101-011200-
SOUTHEAST KANSAS

CITY           SKY/WX    TMP DP  RH WIND       PRES   REMARKS
CHANUTE        LGT RAIN  41  40  96 S9        29.72F FOG
COFFEYVILLE    LGT RAIN  42  41  96 S9        29.74F FOG
HUTCHINSON     CLOUDY    33  30  88 NW26G33   29.81R WCI  20
MEDICINE LODGE   N/A     34  30  85 NW23G32   29.87R WCI  22
NEWTON         CLOUDY    34  28  80 NW23G29   29.76R WCI  22
PARSONS        LGT RAIN  42  42 100 S7        29.74F FOG
WICHITA INTL   CLOUDY    36  34  92 NW22G31   29.77R WCI  25
WICHITA JABRA  LGT RAIN  36  36 100 NW23G29   29.75R WCI  24
WICHITA MCCONL LGT RAIN  37  35  92 NW25G38   29.75R WCI  25
WINFIELD       LGT RAIN  42  28  57 W17       29.75S
$$

KSZ007>012-019>026-033>040-048>060-102>105-011200-
NORTHEAST KANSAS

CITY           SKY/WX    TMP DP  RH WIND       PRES   REMARKS
CONCORDIA      LGT SNOW  28  27  96 NW25G36   29.83R VSB 1   WCI  13
EMPORIA        LGT RAIN  40  40 100 SW8       29.70S
LAWRENCE       LGT RAIN  33  33 100 NE5       29.72F FOG
MANHATTAN      LGT SNOW  34  33  96 VRB3      29.75R FOG
MARYSVILLE     LGT SNOW  32  32 100 N7        29.75R
OLATHE IND     MIX PCPN  36  36 100 S5        29.71F FOG
OLATHE EXE     LGT RAIN  35  35 100 SE5       29.70F FOG
SALINA         LGT SNOW  33  30  88 NW26G36   29.81R FOG     WCI  20
TOPEKA BILLARD LGT RAIN  34  33  96 N3        29.72S FOG
TOPEKA FORBES  LGT RAIN  39  37  92 CALM      29.70F FOG
$$


USA.gov is the U.S. government's official web portal to all federal, state and local government web resources and services.